This demonstration page uses our WeatherBlox Daily Observations layout. Learn more.

Left ArrowRight Arrow

39.01783, -85.05884

Hourly Observations for June 30, 2022

Temp ( °F °C ) Dew Point ( °F °C ) Humidity (%) Winds ( mph kmh ) Pressure ( in mb ) Visibility ( mi km ) Precip ( " mm )
12:52 am 00:52 Clear 72 22.2 53 11.7 52 52 SE 3 6 30.21 1023 10 16 0.00 0.00
1:52 am 01:52 Clear 69 20.6 53 11.7 57 57 Calm 30.19 1023 10 16 0.00 0.00
2:52 am 02:52 Clear 69 20.6 51 10.6 53 53 SSE 3 6 30.18 1022 10 16 0.00 0.00
3:52 am 03:52 Clear 67 19.4 51 10.6 57 57 SSE 5 7 30.18 1022 10 16 0.00 0.00
4:52 am 04:52 Clear 67 19.4 51 10.6 57 57 S 5 7 30.17 1022 10 16 0.00 0.00
5:52 am 05:52 Clear 66 18.9 52 11.1 61 61 S 5 7 30.18 1022 10 16 0.00 0.00
6:52 am 06:52 Sunny 67 19.4 53 11.7 61 61 SSE 6 9 30.18 1022 10 16 0.00 0.00
7:52 am 07:52 Sunny 71 21.7 58 14.4 63 63 SSE 5 7 30.18 1022 10 16 0.00 0.00
8:52 am 08:52 Sunny 76 24.4 59 15 56 56 SSE 7 11 30.18 1022 10 16 0.00 0.00
9:52 am 09:52 Sunny 81 27.2 59 15 47 47 SSE 9 15 30.17 1022 10 16 0.00 0.00
10:52 am 10:52 Sunny 84 28.9 60 15.6 44 44 SE 9 15 30.16 1021 10 16 0.00 0.00
11:52 am 11:52 Sunny 86 30 59 15 40 40 SSW 8 13 30.14 1021 10 16 0.00 0.00
12:52 pm 12:52 Sunny 87 30.6 59 15 39 39 SSW 8 13 30.13 1020 10 16 0.00 0.00
1:52 pm 13:52 Sunny 89 31.7 54 12.2 30 30 WSW 8 13 30.11 1020 10 16 0.00 0.00
2:52 pm 14:52 Sunny 90 32.2 58 14.4 34 34 VRB 6 9 30.08 1019 10 16 0.00 0.00
3:52 pm 15:52 Sunny 91 32.8 58 14.4 33 33 WSW 7 11 30.06 1018 10 16 0.00 0.00
4:52 pm 16:52 Mostly Sunny 91 32.8 59 15 34 34 W 9 15 30.05 1018 10 16 0.00 0.00
5:52 pm 17:52 Sunny 90 32.2 59 15 35 35 SSW 9 15 30.03 1017 10 16 0.00 0.00
6:52 pm 18:52 Sunny 89 31.7 61 16.1 39 39 SSW 5 7 30.02 1017 10 16 0.00 0.00
7:52 pm 19:52 Sunny 87 30.6 64 17.8 46 46 S 6 9 30.02 1017 10 16 0.00 0.00
8:52 pm 20:52 Mostly Sunny 84 28.9 63 17.2 49 49 SSW 6 9 30.02 1017 10 16 0.00 0.00
9:52 pm 21:52 Mostly Clear 82 27.8 63 17.2 53 53 S 3 6 30.02 1017 10 16 0.00 0.00
10:52 pm 22:52 Partly Cloudy 81 27.2 64 17.8 57 57 S 5 7 30.03 1017 10 16 0.00 0.00
11:52 pm 23:52 Partly Cloudy 79 26.1 63 17.2 58 58 SSW 6 9 30.03 1017 10 16 0.00 0.00

Powered by AerisWeather